Wind_Speed
7 6 6 6 5 4 4 3 2 1 1 1 1 1 2 2 3 4 5 5 5 5 6 7 7 7 8 8 8 8 9 9 8 8 9 10 9 9 10 11 10 11 10
7 5 5 4 4 3 3 2 1 0 0 0 1 2 3 3 4 5 6 6 6 7 8 8 8 8 9 9 9 9 9 10 10 10 10 10 10 10 10 11 11 11 12
5 5 4 4 3 3 2 1 1 0 1 1 2 3 4 4 5 6 6 7 7 8 8 9 9 9 9 10 10 10 10 10 10 10 10 11 11 11 10 11 11 12 13
4 5 4 3 3 2 1 1 1 1 2 3 3 4 5 6 6 6 7 7 8 9 9 9 10 10 10 10 10 10 10 11 11 12 12 11 12 12 12 12 12 12 13
4 3 4 4 3 2 1 2 2 2 3 3 4 5 6 6 7 7 8 8 8 9 10 10 10 10 11 10 11 11 11 12 12 13 13 13 13 13 13 13 13 13 13
4 4 3 3 2 2 2 3 3 3 3 4 5 6 6 7 8 9 9 9 9 10 11 11 11 11 11 12 12 12 12 13 13 13 13 13 14 14 14 14 14 14 14
3 3 2 2 2 3 3 4 4 4 5 5 5 6 7 7 8 9 9 10 10 11 12 12 12 12 12 12 13 14 13 13 14 14 13 13 13 13 14 15 15 15 15
3 3 2 2 3 3 4 5 5 5 6 6 7 7 8 8 8 9 10 10 11 12 12 12 12 12 13 13 13 14 14 14 14 14 14 14 14 14 14 14 15 15 16
3 2 1 2 3 4 5 5 6 7 7 7 8 8 9 9 10 10 11 12 12 13 13 12 12 12 13 14 14 15 15 15 15 15 15 15 15 14 14 15 15 16 15
3 2 2 2 3 5 5 6 7 8 8 8 9 9 10 10 10 11 12 12 13 13 13 13 13 13 14 14 15 15 16 16 16 15 15 15 15 16 16 16 15 16 15
3 2 3 3 5 6 6 7 8 9 9 9 10 10 11 11 12 12 12 13 13 14 14 14 14 14 14 14 15 15 16 16 16 15 15 15 15 15 16 16 16 16 16
3 3 4 5 6 6 7 8 9 10 10 10 11 11 12 12 13 13 13 14 14 14 14 14 14 14 14 15 15 15 15 15 15 15 15 15 15 15 15 16 17 17 16
4 4 5 6 7 7 8 9 10 11 11 11 12 13 13 13 14 14 14 14 15 15 15 15 15 15 14 15 15 14 14 14 14 14 15 16 16 16 16 16 16 16 16
5 5 6 8 8 8 9 10 11 12 13 13 14 13 14 14 14 15 15 16 16 17 16 16 15 15 15 15 15 14 14 14 14 14 15 16 16 16 16 17 17 17 16
6 7 8 9 10 10 11 12 13 13 14 14 14 15 15 15 15 16 16 17 17 17 17 17 16 16 15 16 16 15 15 15 15 15 15 16 16 16 17 17 17 17 17
7 8 9 10 11 12 13 14 14 15 16 16 16 17 17 16 17 17 18 18 19 18 17 18 18 17 17 17 17 17 17 17 17 16 16 16 16 16 17 17 17 17 16
9 10 11 11 13 13 14 15 16 17 17 17 17 17 17 18 18 19 20 20 20 19 19 18 18 18 18 19 18 18 18 18 18 17 17 17 16 17 17 17 17 16 16
11 12 12 13 14 14 15 16 17 18 19 19 19 19 18 19 19 20 21 21 20 19 19 19 18 18 19 19 19 19 19 19 19 19 18 18 17 17 17 17 17 16 16
13 14 14 15 16 17 18 18 18 19 20 21 21 20 20 20 20 21 22 22 22 21 20 20 20 19 20 19 20 20 20 20 19 19 19 18 18 17 17 17 17 17 17
15 16 17 18 19 19 19 20 21 22 22 23 23 22 22 22 22 22 22 23 23 23 22 21 21 21 21 21 21 21 21 21 20 20 20 19 18 18 18 18 18 18 18
17 18 19 19 19 20 21 22 23 24 24 25 25 24 24 24 24 24 24 24 24 24 24 23 23 23 23 23 23 22 22 22 21 21 20 20 19 19 19 18 18 19 19
19 20 20 20 20 21 22 23 24 25 25 26 26 26 26 26 25 25 25 25 26 26 25 25 24 24 24 24 24 23 23 22 22 22 22 21 21 20 20 20 19 19 20
20 21 21 22 22 23 24 25 26 26 27 27 27 27 28 27 27 27 27 27 27 27 27 26 25 25 25 25 25 25 24 24 23 23 23 22 22 22 21 21 20 20 20
23 24 24 24 25 26 27 28 28 28 28 29 29 28 28 28 28 28 28 28 28 28 27 26 26 26 26 26 26 26 26 26 25 24 23 23 23 23 23 22 22 22 22
26 27 27 27 27 29 29 29 30 29 30 30 30 29 29 29 29 29 29 29 29 28 27 27 27 27 27 27 27 27 27 27 26 25 25 25 25 25 25 24 24 24 24
29 30 28 29 30 30 30 30 30 31 31 31 31 31 31 30 29 30 29 28 28 28 28 28 28 28 28 27 27 27 27 27 26 27 26 27 27 26 26 26 26 26 26
Wind_Direction
115 114 125 133 135 130 126 126 123 98 110 123 58 344 310 315 321 308 312 309 305 301 298 296 290 287 286 287 282 281 275 276 273 271 273 270 266 268 267 260 255 252 253
112 113 123 138 132 123 119 125 82 225 170 352 320 309 302 308 313 308 311 308 300 297 298 297 292 288 286 289 286 284 278 278 276 274 275 275 269 267 267 261 254 254 255
118 115 106 116 119 111 109 97 41 338 317 317 317 314 307 306 314 314 312 311 307 305 302 299 298 295 291 290 289 289 285 283 281 276 273 274 273 267 265 266 259 259 260
118 116 109 108 101 98 88 46 350 333 322 318 316 315 313 311 315 318 313 308 307 306 301 298 297 295 291 291 290 288 286 285 281 276 273 273 273 270 268 268 266 267 264
113 117 105 96 90 79 43 6 341 314 318 315 311 309 310 310 311 313 313 307 305 304 301 300 299 297 295 291 289 287 288 288 284 280 274 271 274 273 269 267 267 268 267
109 112 104 86 81 62 27 9 5 355 337 323 313 308 306 307 308 308 310 310 306 306 305 303 300 298 297 292 290 287 287 288 288 285 280 275 274 274 271 268 267 267 267
107 109 95 78 51 21 7 355 348 344 335 328 322 318 314 313 309 307 309 309 307 306 306 304 303 300 298 295 294 288 287 287 286 285 282 278 275 275 275 273 268 267 267
92 86 70 45 13 2 356 351 343 337 333 328 322 318 316 314 312 313 310 307 306 306 303 302 301 300 301 301 299 294 290 287 284 285 283 278 274 273 275 276 272 269 267
71 54 39 358 344 343 343 339 334 330 329 327 324 321 319 316 315 314 314 310 307 304 301 300 300 300 300 299 298 294 290 287 285 285 283 281 277 275 277 277 274 271 270
56 26 348 333 332 335 337 338 332 331 325 321 320 320 319 317 314 314 313 310 309 308 305 302 301 301 301 302 301 298 293 289 285 282 282 279 277 274 276 273 274 272 272
32 3 342 332 332 330 329 328 328 325 324 323 321 319 317 315 312 311 310 308 309 309 308 306 304 302 301 302 302 298 294 289 285 283 280 278 278 277 275 275 276 274 273
2 347 332 327 327 326 325 323 322 321 319 321 320 318 317 315 316 311 309 308 308 307 308 308 306 303 302 303 303 299 296 292 288 283 280 280 282 283 278 281 280 277 273
350 342 333 324 323 320 319 320 318 318 318 316 317 315 314 312 314 312 308 308 306 305 307 309 308 305 303 304 305 301 298 296 291 287 284 283 285 285 282 282 280 278 274
336 336 330 322 317 315 315 318 317 318 317 314 313 312 313 312 312 312 308 306 304 303 305 307 306 305 303 303 304 302 301 297 292 287 285 284 284 284 281 278 277 277 275
319 321 321 317 314 312 311 312 313 311 312 312 312 312 313 314 314 311 309 308 306 303 302 303 303 303 304 303 302 301 300 298 294 291 288 285 284 283 281 278 277 277 275
305 308 314 317 316 315 313 313 313 309 308 309 310 311 309 311 311 309 307 306 307 304 301 300 298 297 299 300 298 298 297 295 294 292 290 288 285 285 285 283 281 280 276
299 303 304 311 315 313 313 313 311 310 309 309 308 308 306 305 306 305 306 306 306 305 303 301 299 295 296 298 296 294 293 293 292 290 289 287 285 285 282 282 281 281 277
298 300 298 302 308 312 313 314 314 313 313 313 310 308 305 303 303 304 305 305 305 304 302 301 299 297 298 297 296 295 292 293 291 288 287 286 284 283 282 282 280 280 277
296 296 299 299 301 305 309 311 311 312 312 311 310 307 305 304 303 304 304 304 303 303 301 300 295 295 297 296 295 294 292 291 290 288 286 285 284 282 283 284 281 280 279
293 293 296 300 300 303 304 305 307 307 307 307 306 303 302 301 300 300 300 300 300 300 301 299 296 295 296 294 293 293 292 292 290 287 285 283 282 282 282 284 281 278 279
296 294 297 301 302 302 302 301 303 303 304 305 303 300 298 297 296 297 298 298 298 298 298 297 296 295 295 293 290 289 290 291 289 286 284 282 282 281 280 280 280 277 278
295 296 297 299 300 300 301 301 302 302 302 303 301 299 297 296 295 296 297 297 296 295 295 295 294 294 294 292 289 288 288 287 287 284 283 282 281 279 278 277 277 279 279
291 294 297 299 299 300 301 301 301 301 301 302 300 298 295 294 294 294 295 295 295 295 293 293 293 292 292 291 288 287 286 284 284 283 283 281 281 280 278 277 277 279 281
287 290 294 296 298 300 300 299 300 300 302 302 301 297 294 294 294 293 293 293 294 293 292 292 292 290 289 288 287 286 284 283 281 281 279 280 279 279 278 276 277 278 280
288 290 292 294 296 298 299 298 299 301 302 301 300 298 295 293 294 294 293 292 293 292 291 291 292 291 290 288 287 286 284 282 280 279 277 278 277 276 276 276 277 278 280
286 288 290 293 295 296 297 298 298 300 301 301 301 299 296 294 292 294 292 292 292 291 290 291 292 291 290 289 288 286 284 282 279 277 276 276 277 275 274 274 276 278 279
Height
5886 5887 5887 5888 5888 5889 5890 5890 5891 5891 5892 5892 5892 5892 5892 5892 5891 5891 5890 5890 5889 5889 5888 5888 5887 5887 5886 5885 5885 5884 5884 5884 5884 5883 5883 5883 5883 5882 5882 5882 5883 5883 5883
5887 5888 5888 5889 5889 5890 5891 5891 5891 5891 5892 5892 5892 5892 5892 5891 5890 5890 5890 5889 5888 5888 5887 5886 5886 5885 5885 5884 5883 5883 5882 5882 5882 5881 5881 5881 5880 5880 5880 5880 5880 5881 5881
5888 5888 5889 5889 5890 5890 5891 5891 5891 5891 5891 5892 5892 5892 5891 5891 5890 5890 5889 5888 5887 5887 5886 5885 5884 5883 5883 5882 5881 5881 5880 5880 5879 5879 5879 5878 5878 5878 5878 5877 5877 5878 5878
5888 5889 5889 5890 5890 5891 5891 5891 5891 5891 5891 5891 5891 5891 5891 5890 5889 5889 5888 5887 5886 5885 5885 5884 5883 5882 5881 5880 5879 5879 5878 5878 5877 5876 5876 5876 5875 5875 5875 5875 5875 5875 5875
5889 5890 5890 5890 5891 5891 5891 5892 5892 5891 5891 5891 5891 5890 5890 5889 5888 5887 5887 5886 5885 5884 5883 5882 5881 5880 5879 5878 5877 5877 5876 5875 5874 5874 5873 5873 5872 5872 5872 5872 5872 5872 5872
5890 5890 5890 5891 5891 5892 5892 5892 5892 5891 5891 5891 5890 5889 5889 5888 5887 5886 5885 5884 5883 5882 5881 5880 5879 5878 5877 5876 5875 5874 5873 5872 5871 5871 5870 5869 5869 5869 5869 5869 5868 5868 5868
5890 5890 5891 5891 5891 5892 5892 5891 5891 5890 5890 5890 5889 5888 5888 5887 5886 5885 5884 5883 5882 5880 5879 5878 5877 5876 5874 5873 5872 5871 5870 5869 5868 5867 5866 5866 5866 5866 5866 5865 5865 5865 5865
5891 5891 5891 5891 5892 5891 5891 5891 5890 5890 5889 5889 5888 5887 5887 5886 5885 5883 5882 5881 5879 5878 5877 5875 5874 5873 5872 5870 5869 5868 5867 5866 5865 5864 5863 5862 5862 5862 5862 5862 5862 5861 5861
5891 5891 5891 5892 5891 5891 5891 5890 5890 5889 5888 5887 5887 5886 5885 5884 5883 5881 5880 5878 5877 5876 5874 5873 5871 5870 5869 5868 5866 5865 5864 5862 5862 5861 5860 5859 5859 5858 5859 5858 5858 5857 5857
5891 5891 5891 5891 5891 5891 5890 5889 5888 5888 5887 5886 5885 5884 5883 5882 5881 5880 5878 5876 5875 5873 5872 5870 5868 5867 5866 5864 5863 5861 5860 5859 5858 5858 5857 5856 5856 5855 5855 5854 5854 5854 5853
5891 5891 5891 5891 5890 5890 5889 5888 5887 5886 5886 5885 5884 5883 5881 5880 5879 5878 5876 5875 5873 5871 5869 5868 5866 5864 5862 5861 5859 5857 5856 5855 5855 5854 5853 5852 5852 5851 5850 5850 5850 5850 5849
5891 5891 5890 5890 5889 5889 5888 5887 5886 5885 5884 5883 5882 5881 5880 5878 5877 5875 5874 5872 5871 5869 5867 5865 5863 5861 5859 5858 5856 5854 5853 5852 5851 5850 5849 5848 5848 5847 5846 5846 5846 5846 5845
5891 5890 5889 5889 5888 5887 5886 5885 5884 5883 5882 5881 5880 5879 5877 5876 5874 5873 5871 5870 5868 5866 5865 5863 5860 5859 5857 5855 5853 5851 5850 5848 5847 5846 5845 5845 5844 5843 5843 5843 5842 5841 5841
5890 5889 5888 5888 5887 5886 5884 5884 5882 5881 5880 5879 5878 5876 5875 5873 5872 5870 5869 5867 5865 5863 5861 5860 5858 5856 5854 5852 5850 5848 5847 5845 5844 5842 5841 5841 5840 5839 5839 5838 5838 5837 5837
5889 5888 5887 5887 5885 5884 5883 5881 5880 5879 5877 5876 5874 5873 5872 5870 5868 5867 5865 5864 5862 5860 5858 5856 5854 5852 5850 5848 5846 5845 5843 5842 5840 5839 5837 5837 5836 5835 5834 5834 5834 5833 5832
5888 5887 5886 5885 5883 5882 5881 5879 5878 5876 5874 5873 5871 5870 5868 5867 5865 5864 5862 5860 5858 5856 5854 5852 5850 5848 5846 5844 5843 5841 5839 5838 5836 5835 5834 5832 5832 5831 5830 5830 5829 5828 5828
5885 5884 5883 5882 5881 5880 5878 5877 5875 5873 5871 5870 5868 5866 5864 5863 5861 5859 5858 5856 5853 5852 5850 5848 5845 5843 5841 5840 5838 5836 5835 5834 5832 5831 5829 5828 5827 5826 5826 5825 5824 5823 5823
5883 5882 5880 5880 5878 5877 5875 5874 5872 5870 5868 5866 5865 5863 5861 5859 5857 5855 5853 5851 5849 5847 5845 5843 5841 5839 5837 5835 5833 5832 5830 5829 5827 5826 5825 5824 5822 5822 5821 5820 5819 5819 5818
5880 5879 5877 5876 5875 5874 5872 5870 5869 5867 5865 5863 5861 5859 5857 5855 5853 5851 5848 5846 5844 5842 5840 5838 5836 5834 5832 5830 5828 5827 5825 5824 5822 5821 5820 5818 5817 5817 5816 5816 5815 5814 5814
5877 5875 5874 5873 5872 5870 5868 5866 5865 5863 5861 5858 5856 5854 5852 5850 5848 5845 5843 5841 5839 5837 5835 5832 5831 5829 5827 5825 5823 5821 5820 5818 5817 5816 5814 5813 5812 5812 5811 5811 5810 5809 5809
5872 5871 5870 5869 5867 5865 5864 5861 5860 5858 5855 5853 5850 5848 5846 5844 5842 5840 5837 5835 5833 5831 5829 5827 5825 5823 5821 5819 5818 5816 5814 5813 5811 5810 5809 5808 5807 5806 5806 5805 5804 5804 5803
5868 5867 5865 5864 5862 5860 5858 5856 5854 5852 5849 5847 5844 5842 5840 5838 5835 5833 5831 5829 5827 5825 5823 5821 5819 5817 5815 5813 5811 5810 5808 5807 5806 5804 5803 5802 5801 5800 5799 5799 5798 5798 5797
5863 5862 5860 5859 5857 5855 5852 5850 5847 5844 5842 5840 5838 5835 5833 5831 5828 5826 5824 5822 5820 5817 5816 5814 5812 5810 5808 5806 5804 5803 5802 5800 5799 5798 5796 5795 5795 5794 5793 5792 5792 5792 5791
5857 5855 5854 5853 5851 5848 5846 5843 5840 5838 5835 5833 5830 5828 5825 5823 5821 5819 5817 5815 5812 5810 5808 5807 5805 5803 5801 5799 5797 5796 5794 5793 5792 5791 5790 5789 5788 5787 5786 5786 5785 5785 5785
5850 5848 5847 5845 5843 5841 5839 5836 5833 5830 5828 5825 5823 5820 5817 5815 5813 5810 5808 5806 5804 5802 5800 5799 5797 5795 5793 5791 5789 5788 5787 5785 5784 5784 5783 5782 5781 5780 5779 5779 5778 5778 5777
5842 5841 5839 5838 5836 5833 5831 5828 5825 5823 5820 5818 5815 5812 5809 5807 5805 5802 5800 5798 5796 5794 5792 5790 5789 5787 5785 5783 5781 5780 5778 5777 5776 5776 5775 5774 5773 5772 5772 5772 5771 5770 5769